Location: Buckeye Ditch
(40.9104°N, 122.9517°W)
Time: 13:10:39
(UTC+00:00)

Tiros 1 despin weight - Pass Details

Date: 18 May 2025
Orbit: 563 x 601 km, 48.2° (Epoch: 22 June)

Event Time Altitude Azimuth Distance (km) Brightness Sun altitude
Rises 14:40:23 0° 291° (WNW) 2,840 ? 18.7°
Reaches altitude 10° 14:42:52 10° 301° (WNW) 1,941 ? 19.1°
Maximum altitude 14:46:54 33° 6° (N) 1,023 ? 19.9°
Drops below altitude 10° 14:50:57 10° 71° (ENE) 1,942 ? 20.6°
Sets 14:53:26 0° 81° (E) 2,843 ? 21.1°
